Home   Weather   Trois-Rivieres   Past weeks

Flag for Canada Past Weather in Trois-Rivieres, Quebec, Canada — Yesterday and Last 2 Weeks

Now
27 °F

Chilly.


Feels Like: 17 °F
Forecast: 19 / 30 °F
Wind: 10 mph from North

Location: Trois Rivieres

Current Time: Feb 20, 2017 at 10:45:02 am

Latest Report: Feb 20, 2017 at 10:00 am


Visibility: N/A

Pressure: 30.29 "Hg

Humidity: 56%

Dew Point: 13 °F

Location of Trois-RivieresLocation

Past Weather in Trois-Rivieres — Graph

°F

Trois-Rivieres Temperature Yesterday

Maximum temperature yesterday: 41 °F (at 2:00 pm)
Minimum temperature yesterday: 33 °F (at 1:00 am)
Average temperature yesterday: 36 °F

High & Low Weather Summary for the Past Weeks

 TemperatureHumidityPressure
High41 °F (Feb 19, 2:00 pm)100% (Feb 8, 12:00 am)30.27 "Hg (Feb 8, 12:00 am)
Low-2 °F (Feb 10, 3:00 am)33% (Feb 10, 2:00 pm)29.26 "Hg (Feb 8, 6:00 am)
Average18 °F78%29.82 "Hg
* Reported Feb 5 9:00 am — Feb 20 9:00 am, Trois-Rivieres, Weather by CustomWeather, © 2017

Note: Actual official high and low records may vary slightly from our data, if they occured in-between our weather recording intervals... More about our weather records

Advertising

Trois-Rivieres Weather History for the Previous 24 Hours

Scroll right to see more
 ConditionsComfort  
Time TempWeatherWind HumidityBarometerVisibility
9:00 am
Mon, Feb 20
26 °FChilly.10 mph61%30.27 "HgN/A
8:00 am27 °FChilly.9 mph62%30.24 "HgN/A
7:00 am28 °FChilly.10 mph62%30.20 "HgN/A
6:00 am30 °FChilly.8 mph62%30.16 "HgN/A
5:00 am30 °FChilly.12 mph59%30.13 "HgN/A
4:00 am30 °FChilly.9 mph60%30.11 "HgN/A
3:00 am31 °FChilly.10 mph60%30.08 "HgN/A
2:00 am32 °FChilly.9 mph62%30.06 "HgN/A
1:00 am32 °FChilly.8 mph66%30.04 "HgN/A
12:00 am33 °FChilly.9 mph65%30.02 "HgN/A
11:00 pm
Sun, Feb 19
33 °FChilly.8 mph60%30.01 "HgN/A
10:00 pm35 °FChilly.13 mph60%29.98 "HgN/A
9:00 pm35 °FChilly.10 mph62%29.96 "HgN/A
8:00 pm36 °FChilly.10 mph67%29.92 "HgN/A
7:00 pm35 °FChilly.8 mph74%29.89 "HgN/A
6:00 pm38 °FChilly.12 mph62%29.85 "HgN/A
5:00 pm38 °FChilly.13 mph63%29.80 "HgN/A
4:00 pm40 °FChilly.9 mph68%29.76 "HgN/A
3:00 pm41 °FQuite cool.8 mph70%29.71 "HgN/A
2:00 pm41 °FQuite cool.6 mph77%29.66 "HgN/A
1:00 pm40 °FChilly.1 mph87%29.63 "HgN/A
12:00 pm35 °FChilly.13 mph95%29.60 "HgN/A
11:00 am35 °FChilly.9 mph96%29.59 "HgN/A
10:00 am35 °FChilly.12 mph92%29.57 "HgN/A
Weather by CustomWeather, © 2017

See weather overviewHow to use our weather pages